Powrót do katalogu

SHIYAN 19

SY-19

AktywnyNaukaSSO
NORAD 55861·PAYLOAD·🇨🇳 China

Wystrzelony Mar 15, 2023 z Jiuquan Satellite Launch Center

Loading…

Następne Przeloty (najbliższe 24 godziny)

TLE

ŚwieżeSource: Space-Track

Epoka: Sep 14, 2026, 15:08 UTC

1 55861U 23034A   26257.63074037  .00047403  00000-0  57803-3 0  9993
2 55861  97.3780 117.3393 0005485  33.4737 326.6865 15.60334748196493

Śledź SHIYAN 19 w czasie rzeczywistym z AllMySat

Download on the App Store